When you browse on this site, cookies collect data to enhance your experience and personalize the content and advertising you see.
Visit our Privacy Policy to learn more. By continuing to use the site, you agree to this use of cookies and data.
  • In Latvia
  • List of Countries
  • For 7 days
  • Water Temperature
  • Satellite Maps
  • Weather Map
  • Weather Widgets
  • user-avatar
    Login

    Hourly Weather Tirana

    Today, 21 January, Monday

    Time Temperature Precipitation Wind Pressure Humidity
    00:00 +7°C° 0 mm 2 mps 753 mmHg 78%
    01:00 +7°C° 0 mm 2 mps 753 mmHg 77%
    02:00 +6°C° 0 mm 2 mps 753 mmHg 76%
    03:00 +6°C° 0 mm 2 mps 753 mmHg 74%
    04:00 +6°C° 0 mm 2 mps 753 mmHg 73%
    05:00 +6°C° 0 mm 2 mps 753 mmHg 72%
    06:00 +6°C° 0 mm 2 mps 753 mmHg 71%
    07:00 +6°C° 0 mm 2 mps 753 mmHg 71%
    08:00 +7°C° 0 mm 2 mps 753 mmHg 65%
    09:00 +9°C° 0 mm 2 mps 753 mmHg 60%
    10:00 +12°C° 0 mm 2 mps 753 mmHg 55%
    11:00 +13°C° 0 mm 2 mps 753 mmHg 52%
    12:00 +14°C° 0 mm 2 mps 753 mmHg 48%
    13:00 +15°C° 0 mm 1 mps 752 mmHg 45%
    14:00 +14°C° 0 mm 1 mps 752 mmHg 49%
    15:00 +13°C° 0 mm 1 mps 752 mmHg 52%
    16:00 +13°C° 0 mm 1 mps 752 mmHg 56%
    17:00 +12°C° 0 mm 1 mps 752 mmHg 60%
    18:00 +10°C° 0 mm 2 mps 752 mmHg 64%
    19:00 +9°C° 0 mm 3 mps 752 mmHg 67%
    20:00 +9°C° 0 mm 3 mps 753 mmHg 68%
    21:00 +8°C° 0 mm 3 mps 753 mmHg 68%
    22:00 +7°C° 0 mm 4 mps 753 mmHg 68%
    23:00 +7°C° 0 mm 4 mps 752 mmHg 68%

    Tomorrow, 22 January, Tuesday

    Time Temperature Precipitation Wind Pressure Humidity
    00:00 +7°C° 0 mm 4 mps 752 mmHg 68%
    01:00 +7°C° 0 mm 4 mps 752 mmHg 68%
    02:00 +7°C° 0.4 mm 4 mps 752 mmHg 70%
    03:00 +7°C° 0.4 mm 4 mps 751 mmHg 72%
    04:00 +7°C° 0.4 mm 4 mps 750 mmHg 74%
    05:00 +7°C° 0.3 mm 5 mps 750 mmHg 73%
    06:00 +7°C° 0.3 mm 5 mps 750 mmHg 72%
    07:00 +7°C° 0.3 mm 6 mps 749 mmHg 71%
    08:00 +8°C° 0.5 mm 6 mps 749 mmHg 70%
    09:00 +8°C° 0.5 mm 5 mps 749 mmHg 69%
    10:00 +9°C° 0.5 mm 5 mps 749 mmHg 69%
    11:00 +9°C° 1.4 mm 5 mps 748 mmHg 69%
    12:00 +10°C° 1.4 mm 5 mps 747 mmHg 70%
    13:00 +10°C° 1.4 mm 6 mps 747 mmHg 70%
    14:00 +10°C° 0.5 mm 6 mps 746 mmHg 72%
    15:00 +9°C° 0.5 mm 6 mps 745 mmHg 74%
    16:00 +9°C° 0.5 mm 6 mps 745 mmHg 75%
    17:00 +9°C° 0.6 mm 6 mps 745 mmHg 76%
    18:00 +8°C° 0.6 mm 6 mps 744 mmHg 77%
    19:00 +8°C° 0.6 mm 5 mps 744 mmHg 79%
    20:00 +8°C° 0.6 mm 6 mps 744 mmHg 79%
    21:00 +8°C° 0.6 mm 6 mps 744 mmHg 79%
    22:00 +7°C° 0.6 mm 6 mps 744 mmHg 80%
    23:00 +8°C° 0.9 mm 6 mps 744 mmHg 83%

    Day after tomorrow, 23 January, Wednesday

    Time Temperature Precipitation Wind Pressure Humidity
    00:00 +8°C° 0.9 mm 6 mps 744 mmHg 85%
    01:00 +8°C° 0.9 mm 6 mps 744 mmHg 88%
    02:00 +7°C° 0.8 mm 6 mps 744 mmHg 88%
    03:00 +7°C° 0.8 mm 6 mps 744 mmHg 89%
    04:00 +5°C° 0.8 mm 6 mps 744 mmHg 89%
    05:00 +5°C° 0.9 mm 6 mps 744 mmHg 89%
    06:00 +6°C° 0.9 mm 5 mps 744 mmHg 90%
    07:00 +5°C° 0.9 mm 5 mps 744 mmHg 90%
    08:00 +7°C° 0.9 mm 6 mps 745 mmHg 84%
    09:00 +8°C° 0.9 mm 6 mps 745 mmHg 77%
    10:00 +9°C° 0.9 mm 6 mps 745 mmHg 71%
    11:00 +9°C° 0.2 mm 6 mps 745 mmHg 67%
    12:00 +10°C° 0.2 mm 6 mps 744 mmHg 62%
    13:00 +11°C° 0.2 mm 6 mps 744 mmHg 58%
    14:00 +12°C° 0 mm 5 mps 744 mmHg 60%
    15:00 +11°C° 0 mm 4 mps 743 mmHg 62%
    16:00 +11°C° 0 mm 3 mps 743 mmHg 63%
    17:00 +10°C° 0 mm 3 mps 743 mmHg 65%
    18:00 +9°C° 0 mm 3 mps 743 mmHg 66%
    19:00 +8°C° 0 mm 3 mps 743 mmHg 68%
    20:00 +8°C° 0 mm 3 mps 743 mmHg 68%
    21:00 +8°C° 0 mm 3 mps 742 mmHg 68%
    22:00 +8°C° 0 mm 3 mps 742 mmHg 68%
    23:00 +7°C° 0.2 mm 3 mps 742 mmHg 70%

    24 January, Thursday

    Time Temperature Precipitation Wind Pressure Humidity
    00:00 +7°C° 0.2 mm 3 mps 741 mmHg 73%
    01:00 +7°C° 0.2 mm 2 mps 740 mmHg 76%
    02:00 +7°C° 0.5 mm 3 mps 740 mmHg 76%
    03:00 +7°C° 0.5 mm 3 mps 739 mmHg 76%
    04:00 +7°C° 0.5 mm 3 mps 738 mmHg 76%
    05:00 +6°C° 0 mm 4 mps 738 mmHg 75%
    06:00 +6°C° 0 mm 5 mps 738 mmHg 73%
    07:00 +6°C° 0 mm 5 mps 737 mmHg 72%
    08:00 +7°C° 0 mm 6 mps 737 mmHg 68%
    09:00 +9°C° 0 mm 6 mps 737 mmHg 64%
    10:00 +11°C° 0 mm 6 mps 737 mmHg 60%
    11:00 +11°C° 0 mm 6 mps 737 mmHg 60%
    12:00 +13°C° 0 mm 5 mps 736 mmHg 60%
    13:00 +13°C° 0 mm 4 mps 736 mmHg 60%
    14:00 +12°C° 0.4 mm 4 mps 737 mmHg 67%
    15:00 +11°C° 0.4 mm 3 mps 737 mmHg 73%
    16:00 +10°C° 0.4 mm 3 mps 737 mmHg 80%
    17:00 +10°C° 0.4 mm 3 mps 738 mmHg 81%
    18:00 +8°C° 0.4 mm 4 mps 738 mmHg 82%
    19:00 +8°C° 0.4 mm 4 mps 739 mmHg 82%
    20:00 +7°C° 0 mm 4 mps 739 mmHg 80%
    21:00 +7°C° 0 mm 4 mps 739 mmHg 77%
    22:00 +7°C° 0 mm 5 mps 739 mmHg 75%
    23:00 +7°C° 0 mm 5 mps 739 mmHg 74%

    25 January, Friday

    Time Temperature Precipitation Wind Pressure Humidity
    00:00 +6°C° 0 mm 5 mps 739 mmHg 74%
    01:00 +5°C° 0 mm 6 mps 739 mmHg 74%
    02:00 +6°C° 1.1 mm 5 mps 739 mmHg 78%
    03:00 +6°C° 1.1 mm 4 mps 740 mmHg 82%
    04:00 +6°C° 1.1 mm 4 mps 740 mmHg 87%
    05:00 +6°C° 0.7 mm 4 mps 741 mmHg 86%
    06:00 +6°C° 0.7 mm 4 mps 741 mmHg 86%
    07:00 +5°C° 0.7 mm 5 mps 742 mmHg 85%
    08:00 +6°C° 0.1 mm 4 mps 742 mmHg 83%
    09:00 +6°C° 0.1 mm 4 mps 742 mmHg 81%
    10:00 +7°C° 0.1 mm 4 mps 742 mmHg 78%
    11:00 +7°C° 0.1 mm 4 mps 742 mmHg 76%
    12:00 +8°C° 0.1 mm 4 mps 742 mmHg 75%
    13:00 +8°C° 0.1 mm 4 mps 742 mmHg 73%
    14:00 +8°C° 0.3 mm 4 mps 742 mmHg 74%
    15:00 +8°C° 0.3 mm 4 mps 743 mmHg 76%
    16:00 +7°C° 0.3 mm 4 mps 743 mmHg 78%
    17:00 +7°C° 0 mm 5 mps 743 mmHg 78%
    18:00 +6°C° 0 mm 5 mps 743 mmHg 78%
    19:00 +6°C° 0 mm 5 mps 744 mmHg 78%
    20:00 +5°C° 0 mm 5 mps 744 mmHg 77%
    21:00 +5°C° 0 mm 5 mps 744 mmHg 76%
    22:00 +5°C° 0 mm 5 mps 745 mmHg 75%
    23:00 +3°C° 0 mm 5 mps 745 mmHg 74%

    26 January, Saturday

    Time Temperature Precipitation Wind Pressure Humidity
    00:00 +3°C° 0 mm 5 mps 745 mmHg 73%
    01:00 +2°C° 0 mm 5 mps 745 mmHg 72%
    02:00 +3°C° 0 mm 4 mps 745 mmHg 72%
    03:00 +3°C° 0 mm 4 mps 745 mmHg 72%
    04:00 +3°C° 0 mm 4 mps 745 mmHg 72%
    05:00 +1°C° 0 mm 4 mps 745 mmHg 72%
    06:00 +1°C° 0 mm 4 mps 746 mmHg 71%
    07:00 +1°C° 0 mm 4 mps 746 mmHg 71%
    08:00 +4°C° 0 mm 4 mps 746 mmHg 66%
    09:00 +6°C° 0 mm 4 mps 747 mmHg 61%
    10:00 +7°C° 0 mm 4 mps 747 mmHg 57%
    11:00 +8°C° 0 mm 5 mps 747 mmHg 54%
    12:00 +9°C° 0 mm 5 mps 747 mmHg 51%
    13:00 +10°C° 0 mm 5 mps 747 mmHg 49%
    14:00 +10°C° 0 mm 5 mps 747 mmHg 53%
    15:00 +9°C° 0 mm 5 mps 747 mmHg 57%
    16:00 +9°C° 0 mm 5 mps 747 mmHg 62%
    17:00 +7°C° 0 mm 5 mps 747 mmHg 65%
    18:00 +6°C° 0 mm 5 mps 748 mmHg 67%
    19:00 +5°C° 0 mm 4 mps 748 mmHg 70%
    20:00 +4°C° 0 mm 4 mps 748 mmHg 70%
    21:00 +4°C° 0 mm 3 mps 748 mmHg 70%
    22:00 +3°C° 0 mm 3 mps 748 mmHg 70%
    23:00 +4°C° 0 mm 2 mps 748 mmHg 70%
    Show more